Location: Asheville, NC
(35.6000°N, 82.5500°W)
Time: 01:46:35
(UTC-04:00)

LilacSat-2 - Pass Details

Date: 05 January 2018
Orbit: 515 x 535 km, 97.5° (Epoch: 20 July)

Event Time Altitude Azimuth Distance (km) Brightness Sun altitude
Rises 18:11:31 0° 182° (S) 2,661 ? -8.3°
Reaches altitude 10° 18:13:42 10° 189° (S) 1,777 ? -8.7°
Maximum altitude 18:17:21 42° 261° (W) 770 ? -9.4°
Drops below altitude 10° 18:21:03 10° 333° (NNW) 1,793 ? -10.1°
Sets 18:23:15 0° 341° (NNW) 2,689 ? -10.5°
